This is the latest recevied weather packets stored in our database for station/object N3EDS. If no packets are shown the sender has not sent any weather packets the latest 10 day(s).
| Time | Temp. | Humidity | Pressure | Rain* | Wind** | Luminosity | Snow |
|---|---|---|---|---|---|---|---|
| 1777662829 | 12.22° C | 42% | 1011.1 hPa | 0 mm | - | 140 W/m² | - |
| 1777662526 | 12.78° C | 43% | 1011.2 hPa | 0 mm | - | 62 W/m² | - |
| 1777662222 | 12.78° C | 42% | 1010.9 hPa | 0 mm | - | 82 W/m² | - |
| 1777661917 | 12.78° C | 42% | 1011 hPa | 0 mm | - | 101 W/m² | - |
| 1777661614 | 12.78° C | 50% | 1011.1 hPa | 0 mm | - | 123 W/m² | - |
| 1777661309 | 13.33° C | 46% | 1011.2 hPa | 0 mm | - | 114 W/m² | - |
| 1777661005 | 13.33° C | 45% | 1011.3 hPa | 0 mm | - | 256 W/m² | - |
| 1777660701 | 12.78° C | 43% | 1010.9 hPa | 0 mm | - | 285 W/m² | - |
| 1777660399 | 12.78° C | 42% | 1011.2 hPa | 0 mm | - | 205 W/m² | - |
| 1777660095 | 12.78° C | 41% | 1011.3 hPa | 0 mm | - | 118 W/m² | - |
| 1777659792 | 13.33° C | 43% | 1011.1 hPa | 0 mm | - | 152 W/m² | - |
| 1777659489 | 13.33° C | 40% | 1011.2 hPa | 0 mm | - | 347 W/m² | - |
| 1777659186 | 13.33° C | 43% | 1011.1 hPa | 0 mm | - | 342 W/m² | - |
| 1777658883 | 13.33° C | 42% | 1011.3 hPa | 0 mm | - | 295 W/m² | - |
| 1777658579 | 12.78° C | 42% | 1011.4 hPa | 0 mm | - | 296 W/m² | - |
| 1777658276 | 12.78° C | 42% | 1011.5 hPa | 0 mm | - | 274 W/m² | - |
| 1777657973 | 12.22° C | 42% | 1011.3 hPa | 0 mm | - | 354 W/m² | - |
| 1777657669 | 12.22° C | 43% | 1011.4 hPa | 0 mm | - | 256 W/m² | - |
| 1777657367 | 12.22° C | 45% | 1011.5 hPa | 0 mm | - | 206 W/m² | - |
| 1777657065 | 12.78° C | 47% | 1011.5 hPa | 0 mm | - | 162 W/m² | - |
| 1777656761 | 12.22° C | 45% | 1011.5 hPa | 0 mm | - | 401 W/m² | - |
| 1777656457 | 13.33° C | 41% | 1011.5 hPa | 0 mm | - | 226 W/m² | - |
| 1777656153 | 12.78° C | 45% | 1011.7 hPa | 0 mm | - | 744 W/m² | - |
| 1777655849 | 12.78° C | 46% | 1011.7 hPa | 0 mm | - | 445 W/m² | - |
| 1777655546 | 12.22° C | 47% | 1011.8 hPa | 0 mm | - | 287 W/m² | - |
* Rain latest hour (hover to see other rain measurements)
** Current wind speed in m/s (hover to see current wind gust speed)